Year,Month,Day,Hour,Minute,Value (Times are PST for temperature in C)
2014,08,08,00,00,17.50
2014,08,08,00,01,17.40
2014,08,08,00,02,17.30
2014,08,08,00,03,17.20
2014,08,08,00,04,17.10
2014,08,08,00,05,17.00
2014,08,08,00,06,16.90
2014,08,08,00,07,16.90
2014,08,08,00,08,16.80
2014,08,08,00,09,16.70
2014,08,08,00,10,16.60
2014,08,08,00,11,16.50
2014,08,08,00,12,16.40
2014,08,08,00,13,16.30
2014,08,08,00,14,16.20
2014,08,08,00,15,16.10
2014,08,08,00,16,16.00
2014,08,08,00,17,16.00
2014,08,08,00,18,15.90
2014,08,08,00,19,15.90
2014,08,08,00,20,15.80
2014,08,08,00,21,15.80
2014,08,08,00,22,15.70
2014,08,08,00,23,15.70
2014,08,08,00,24,15.60
2014,08,08,00,25,15.60
2014,08,08,00,26,15.50
2014,08,08,00,27,15.50
2014,08,08,00,28,15.60
2014,08,08,00,29,15.70
2014,08,08,00,30,15.80
2014,08,08,00,31,15.90
2014,08,08,00,32,15.90
2014,08,08,00,33,16.00
2014,08,08,00,34,16.00
2014,08,08,00,35,16.00
2014,08,08,00,36,16.00
2014,08,08,00,37,16.00
2014,08,08,00,38,15.90
2014,08,08,00,39,15.80
2014,08,08,00,40,15.70
2014,08,08,00,41,15.70
2014,08,08,00,42,15.60
2014,08,08,00,43,15.50
2014,08,08,00,44,15.40
2014,08,08,00,45,15.30
2014,08,08,00,46,15.20
2014,08,08,00,47,15.20
2014,08,08,00,48,15.20
2014,08,08,00,49,15.20
2014,08,08,00,50,15.10
2014,08,08,00,51,15.10
2014,08,08,00,52,15.00
2014,08,08,00,53,15.00
2014,08,08,00,54,15.00
2014,08,08,00,55,14.90
2014,08,08,00,56,14.90
2014,08,08,00,57,14.90
2014,08,08,00,58,14.90
2014,08,08,00,59,14.80
2014,08,08,01,00,14.80
2014,08,08,01,01,14.80
2014,08,08,01,02,14.70
2014,08,08,01,03,14.70
2014,08,08,01,04,14.60
2014,08,08,01,05,14.60
2014,08,08,01,06,14.50
2014,08,08,01,07,14.50
2014,08,08,01,08,14.40
2014,08,08,01,09,14.40
2014,08,08,01,10,14.40
2014,08,08,01,11,14.40
2014,08,08,01,12,14.40
2014,08,08,01,13,14.40
2014,08,08,01,14,14.30
2014,08,08,01,15,14.30
2014,08,08,01,16,14.30
2014,08,08,01,17,14.30
2014,08,08,01,18,14.30
2014,08,08,01,19,14.30
2014,08,08,01,20,14.30
2014,08,08,01,21,14.40
2014,08,08,01,22,14.40
2014,08,08,01,23,14.50
2014,08,08,01,24,14.50
2014,08,08,01,25,14.60
2014,08,08,01,26,14.60
2014,08,08,01,27,14.50
2014,08,08,01,28,14.50
2014,08,08,01,29,14.50
2014,08,08,01,30,14.50
2014,08,08,01,31,14.60
2014,08,08,01,32,14.60
2014,08,08,01,33,14.60
2014,08,08,01,34,14.60
2014,08,08,01,35,14.50
2014,08,08,01,36,14.50
2014,08,08,01,37,14.50
2014,08,08,01,38,14.60
2014,08,08,01,39,14.60
2014,08,08,01,40,14.70
2014,08,08,01,41,14.80
2014,08,08,01,42,14.80
2014,08,08,01,43,14.80
2014,08,08,01,44,14.80
2014,08,08,01,45,14.80
2014,08,08,01,46,14.80
2014,08,08,01,47,14.70
2014,08,08,01,48,14.70
2014,08,08,01,49,14.70
2014,08,08,01,50,14.70
2014,08,08,01,51,14.70
2014,08,08,01,52,14.70
2014,08,08,01,53,14.70
2014,08,08,01,54,14.70
2014,08,08,01,55,14.80
2014,08,08,01,56,14.80
2014,08,08,01,57,14.80
2014,08,08,01,58,14.80
2014,08,08,01,59,14.80
2014,08,08,02,00,14.80
2014,08,08,02,01,14.80
2014,08,08,02,02,14.70
2014,08,08,02,03,14.70
2014,08,08,02,04,14.70
2014,08,08,02,05,14.70
2014,08,08,02,06,14.80
2014,08,08,02,07,14.80
2014,08,08,02,08,14.90
2014,08,08,02,09,15.00
2014,08,08,02,10,15.00
2014,08,08,02,11,15.10
2014,08,08,02,12,15.10
2014,08,08,02,13,15.20
2014,08,08,02,14,15.20
2014,08,08,02,15,15.20
2014,08,08,02,16,15.20
2014,08,08,02,17,15.20
2014,08,08,02,18,15.20
2014,08,08,02,19,15.30
2014,08,08,02,20,15.30
2014,08,08,02,21,15.30
2014,08,08,02,22,15.30
2014,08,08,02,23,15.20
2014,08,08,02,24,15.10
2014,08,08,02,25,15.10
2014,08,08,02,26,15.10
2014,08,08,02,27,15.10
2014,08,08,02,28,15.00
2014,08,08,02,29,15.00
2014,08,08,02,30,15.00
2014,08,08,02,31,14.90
2014,08,08,02,32,14.90
2014,08,08,02,33,15.00
2014,08,08,02,34,15.00
2014,08,08,02,35,15.00
2014,08,08,02,36,14.90
2014,08,08,02,37,14.90
2014,08,08,02,38,14.90
2014,08,08,02,39,14.90
2014,08,08,02,40,14.90
2014,08,08,02,41,14.80
2014,08,08,02,42,14.70
2014,08,08,02,43,14.70
2014,08,08,02,44,14.60
2014,08,08,02,45,14.60
2014,08,08,02,46,14.60
2014,08,08,02,47,14.50
2014,08,08,02,48,14.50
2014,08,08,02,49,14.40
2014,08,08,02,50,14.40
2014,08,08,02,51,14.40
2014,08,08,02,52,14.40
2014,08,08,02,53,14.40
2014,08,08,02,54,14.40
2014,08,08,02,55,14.40
2014,08,08,02,56,14.40
2014,08,08,02,57,14.40
2014,08,08,02,58,14.30
2014,08,08,02,59,14.30
2014,08,08,03,00,14.30
2014,08,08,03,01,14.30
2014,08,08,03,02,14.30
2014,08,08,03,03,14.40
2014,08,08,03,04,14.40
2014,08,08,03,05,14.40
2014,08,08,03,06,14.40
2014,08,08,03,07,14.30
2014,08,08,03,08,14.30
2014,08,08,03,09,14.30
2014,08,08,03,10,14.30
2014,08,08,03,11,14.30
2014,08,08,03,12,14.20
2014,08,08,03,13,14.20
2014,08,08,03,14,14.10
2014,08,08,03,15,14.10
2014,08,08,03,16,14.00
2014,08,08,03,17,13.90
2014,08,08,03,18,13.90
2014,08,08,03,19,13.80
2014,08,08,03,20,13.80
2014,08,08,03,21,13.80
2014,08,08,03,22,13.80
2014,08,08,03,23,13.80
2014,08,08,03,24,13.70
2014,08,08,03,25,13.70
2014,08,08,03,26,13.70
2014,08,08,03,27,13.70
2014,08,08,03,28,13.60
2014,08,08,03,29,13.60
2014,08,08,03,30,13.60
2014,08,08,03,31,13.60
2014,08,08,03,32,13.60
2014,08,08,03,33,13.60
2014,08,08,03,34,13.60
2014,08,08,03,35,13.60
2014,08,08,03,36,13.60
2014,08,08,03,37,13.60
2014,08,08,03,38,13.60
2014,08,08,03,39,13.60
2014,08,08,03,40,13.60
2014,08,08,03,41,13.70
2014,08,08,03,42,13.70
2014,08,08,03,43,13.70
2014,08,08,03,44,13.70
2014,08,08,03,45,13.70
2014,08,08,03,46,13.80
2014,08,08,03,47,13.80
2014,08,08,03,48,13.80
2014,08,08,03,49,13.80
2014,08,08,03,50,13.80
2014,08,08,03,51,13.80
2014,08,08,03,52,13.80
2014,08,08,03,53,13.70
2014,08,08,03,54,13.70
2014,08,08,03,55,13.70
2014,08,08,03,56,13.60
2014,08,08,03,57,13.60
2014,08,08,03,58,13.60
2014,08,08,03,59,13.50
2014,08,08,04,00,13.50
2014,08,08,04,01,13.50
2014,08,08,04,02,13.40
2014,08,08,04,03,13.40
2014,08,08,04,04,13.40
2014,08,08,04,05,13.30
2014,08,08,04,06,13.30
2014,08,08,04,07,13.30
2014,08,08,04,08,13.30
2014,08,08,04,09,13.30
2014,08,08,04,10,13.30
2014,08,08,04,11,13.30
2014,08,08,04,12,13.30
2014,08,08,04,13,13.30
2014,08,08,04,14,13.30
2014,08,08,04,15,13.30
2014,08,08,04,16,13.30
2014,08,08,04,17,13.30
2014,08,08,04,18,13.40
2014,08,08,04,19,13.40
2014,08,08,04,20,13.40
2014,08,08,04,21,13.40
2014,08,08,04,22,13.40
2014,08,08,04,23,13.40
2014,08,08,04,24,13.40
2014,08,08,04,25,13.40
2014,08,08,04,26,13.40
2014,08,08,04,27,13.30
2014,08,08,04,28,13.30
2014,08,08,04,29,13.30
2014,08,08,04,30,13.30
2014,08,08,04,31,13.30
2014,08,08,04,32,13.20
2014,08,08,04,33,13.20
2014,08,08,04,34,13.20
2014,08,08,04,35,13.20
2014,08,08,04,36,13.20
2014,08,08,04,37,13.10
2014,08,08,04,38,13.10
2014,08,08,04,39,13.10
2014,08,08,04,40,13.10
2014,08,08,04,41,13.10
2014,08,08,04,42,13.00
2014,08,08,04,43,13.00
2014,08,08,04,44,13.00
2014,08,08,04,45,12.90
2014,08,08,04,46,12.90
2014,08,08,04,47,12.80
2014,08,08,04,48,12.80
2014,08,08,04,49,12.80
2014,08,08,04,50,12.80
2014,08,08,04,51,12.80
2014,08,08,04,52,12.80
2014,08,08,04,53,12.80
2014,08,08,04,54,12.80
2014,08,08,04,55,12.80
2014,08,08,04,56,12.80
2014,08,08,04,57,12.80
2014,08,08,04,58,12.80
2014,08,08,04,59,12.80
2014,08,08,05,00,12.80
2014,08,08,05,01,12.80
2014,08,08,05,02,12.90
2014,08,08,05,03,12.90
2014,08,08,05,04,12.90
2014,08,08,05,05,12.90
2014,08,08,05,06,12.90
2014,08,08,05,07,12.90
2014,08,08,05,08,12.80
2014,08,08,05,09,12.80
2014,08,08,05,10,12.80
2014,08,08,05,11,12.80
2014,08,08,05,12,12.80
2014,08,08,05,13,12.80
2014,08,08,05,14,12.70
2014,08,08,05,15,12.70
2014,08,08,05,16,12.70
2014,08,08,05,17,12.70
2014,08,08,05,18,12.70
2014,08,08,05,19,12.60
2014,08,08,05,20,12.60
2014,08,08,05,21,12.60
2014,08,08,05,22,12.70
2014,08,08,05,23,12.70
2014,08,08,05,24,12.70
2014,08,08,05,25,12.70
2014,08,08,05,26,12.60
2014,08,08,05,27,12.60
2014,08,08,05,28,12.60
2014,08,08,05,29,12.60
2014,08,08,05,30,12.60
2014,08,08,05,31,12.60
2014,08,08,05,32,12.60
2014,08,08,05,33,12.60
2014,08,08,05,34,12.60
2014,08,08,05,35,12.50
2014,08,08,05,36,12.50
2014,08,08,05,37,12.50
2014,08,08,05,38,12.50
2014,08,08,05,39,12.50
2014,08,08,05,40,12.50
2014,08,08,05,41,12.40
2014,08,08,05,42,12.40
2014,08,08,05,43,12.40
2014,08,08,05,44,12.40
2014,08,08,05,45,12.40
2014,08,08,05,46,12.40
2014,08,08,05,47,12.40
2014,08,08,05,48,12.40
2014,08,08,05,49,12.40
2014,08,08,05,50,12.40
2014,08,08,05,51,12.30
2014,08,08,05,52,12.30
2014,08,08,05,53,12.30
2014,08,08,05,54,12.30
2014,08,08,05,55,12.30
2014,08,08,05,56,12.30
2014,08,08,05,57,12.30
2014,08,08,05,58,12.30
2014,08,08,05,59,12.30
2014,08,08,06,00,12.30
2014,08,08,06,01,12.30
2014,08,08,06,02,12.30
2014,08,08,06,03,12.30
2014,08,08,06,04,12.30
2014,08,08,06,05,12.30
2014,08,08,06,06,12.40
2014,08,08,06,07,12.50
2014,08,08,06,08,12.60
2014,08,08,06,09,12.60
2014,08,08,06,10,12.60
2014,08,08,06,11,12.70
2014,08,08,06,12,12.70
2014,08,08,06,13,12.80
2014,08,08,06,14,13.00
2014,08,08,06,15,13.30
2014,08,08,06,16,13.50
2014,08,08,06,17,13.70
2014,08,08,06,18,13.90
2014,08,08,06,19,14.10
2014,08,08,06,20,14.20
2014,08,08,06,21,14.20
2014,08,08,06,22,14.20
2014,08,08,06,23,14.20
2014,08,08,06,24,14.20
2014,08,08,06,25,14.20
2014,08,08,06,26,14.20
2014,08,08,06,27,14.30
2014,08,08,06,28,14.40
2014,08,08,06,29,14.50
2014,08,08,06,30,14.60
2014,08,08,06,31,14.60
2014,08,08,06,32,14.80
2014,08,08,06,33,15.00
2014,08,08,06,34,15.20
2014,08,08,06,35,15.40
2014,08,08,06,36,15.50
2014,08,08,06,37,15.60
2014,08,08,06,38,15.80
2014,08,08,06,39,15.90
2014,08,08,06,40,16.00
2014,08,08,06,41,16.10
2014,08,08,06,42,16.10
2014,08,08,06,43,16.10
2014,08,08,06,44,16.20
2014,08,08,06,45,16.30
2014,08,08,06,46,16.40
2014,08,08,06,47,16.40
2014,08,08,06,48,16.50
2014,08,08,06,49,16.50
2014,08,08,06,50,16.50
2014,08,08,06,51,16.50
2014,08,08,06,52,16.50
2014,08,08,06,53,16.40
2014,08,08,06,54,16.40
2014,08,08,06,55,16.40
2014,08,08,06,56,16.40
2014,08,08,06,57,16.40
2014,08,08,06,58,16.40
2014,08,08,06,59,16.40
2014,08,08,07,00,16.40
2014,08,08,07,01,16.30
2014,08,08,07,02,16.20
2014,08,08,07,03,16.10
2014,08,08,07,04,16.10
2014,08,08,07,05,16.00
2014,08,08,07,06,16.00
2014,08,08,07,07,15.90
2014,08,08,07,08,15.80
2014,08,08,07,09,15.80
2014,08,08,07,10,15.80
2014,08,08,07,11,15.80
2014,08,08,07,12,15.80
2014,08,08,07,13,15.80
2014,08,08,07,14,15.80
2014,08,08,07,15,15.80
2014,08,08,07,16,15.90
2014,08,08,07,17,15.90
2014,08,08,07,18,15.80
2014,08,08,07,19,15.80
2014,08,08,07,20,15.80
2014,08,08,07,21,15.80
2014,08,08,07,22,15.80
2014,08,08,07,23,15.80
2014,08,08,07,24,15.80
2014,08,08,07,25,15.80
2014,08,08,07,26,15.80
2014,08,08,07,27,15.80
2014,08,08,07,28,15.90
2014,08,08,07,29,16.00
2014,08,08,07,30,16.00
2014,08,08,07,31,16.10
2014,08,08,07,32,16.10
2014,08,08,07,33,16.10
2014,08,08,07,34,16.20
2014,08,08,07,35,16.30
2014,08,08,07,36,16.30
2014,08,08,07,37,16.40
2014,08,08,07,38,16.50
2014,08,08,07,39,16.50
2014,08,08,07,40,16.60
2014,08,08,07,41,16.70
2014,08,08,07,42,16.70
2014,08,08,07,43,16.80
2014,08,08,07,44,16.80
2014,08,08,07,45,16.90
2014,08,08,07,46,17.10
2014,08,08,07,47,17.20
2014,08,08,07,48,17.30
2014,08,08,07,49,17.40
2014,08,08,07,50,17.50
2014,08,08,07,51,17.60
2014,08,08,07,52,17.60
2014,08,08,07,53,17.70
2014,08,08,07,54,17.80
2014,08,08,07,55,17.80
2014,08,08,07,56,17.80
2014,08,08,07,57,17.90
2014,08,08,07,58,17.90
2014,08,08,07,59,17.90
2014,08,08,08,00,18.00
2014,08,08,08,01,18.00
2014,08,08,08,02,18.00
2014,08,08,08,03,18.00
2014,08,08,08,04,18.00
2014,08,08,08,05,17.90
2014,08,08,08,06,17.90
2014,08,08,08,07,17.90
2014,08,08,08,08,17.80
2014,08,08,08,09,17.70
2014,08,08,08,10,17.70
2014,08,08,08,11,17.60
2014,08,08,08,12,17.60
2014,08,08,08,13,17.60
2014,08,08,08,14,17.60
2014,08,08,08,15,17.60
2014,08,08,08,16,17.60
2014,08,08,08,17,17.60
2014,08,08,08,18,17.50
2014,08,08,08,19,17.50
2014,08,08,08,20,17.50
2014,08,08,08,21,17.60
2014,08,08,08,22,17.50
2014,08,08,08,23,17.50
2014,08,08,08,24,17.50
2014,08,08,08,25,17.50
2014,08,08,08,26,17.50
2014,08,08,08,27,17.50
2014,08,08,08,28,17.50
2014,08,08,08,29,17.60
2014,08,08,08,30,17.60
2014,08,08,08,31,17.70
2014,08,08,08,32,17.70
2014,08,08,08,33,17.80
2014,08,08,08,34,17.80
2014,08,08,08,35,17.90
2014,08,08,08,36,17.90
2014,08,08,08,37,17.90
2014,08,08,08,38,17.90
2014,08,08,08,39,18.00
2014,08,08,08,40,18.00
2014,08,08,08,41,18.00
2014,08,08,08,42,18.10
2014,08,08,08,43,18.00
2014,08,08,08,44,18.00
2014,08,08,08,45,17.90
2014,08,08,08,46,17.90
2014,08,08,08,47,17.90
2014,08,08,08,48,17.90
2014,08,08,08,49,17.80
2014,08,08,08,50,17.80
2014,08,08,08,51,17.80
2014,08,08,08,52,17.80
2014,08,08,08,53,17.80
2014,08,08,08,54,17.90
2014,08,08,08,55,17.90
2014,08,08,08,56,17.90
2014,08,08,08,57,17.90
2014,08,08,08,58,17.90
2014,08,08,08,59,17.90
2014,08,08,09,00,18.00
2014,08,08,09,01,18.00
2014,08,08,09,02,18.00
2014,08,08,09,03,18.00
2014,08,08,09,04,18.00
2014,08,08,09,05,18.00
2014,08,08,09,06,18.00
2014,08,08,09,07,18.00
2014,08,08,09,08,17.80
2014,08,08,09,09,17.70
2014,08,08,09,10,17.70
2014,08,08,09,11,17.60
2014,08,08,09,12,17.60
2014,08,08,09,13,17.50
2014,08,08,09,14,17.40
2014,08,08,09,15,17.40
2014,08,08,09,16,17.30
2014,08,08,09,17,17.30
2014,08,08,09,18,17.30
2014,08,08,09,19,17.20
2014,08,08,09,20,17.20
2014,08,08,09,21,17.20
2014,08,08,09,22,17.10
2014,08,08,09,23,17.10
2014,08,08,09,24,17.10
2014,08,08,09,25,17.10
2014,08,08,09,26,17.10
2014,08,08,09,27,17.10
2014,08,08,09,28,17.10
2014,08,08,09,29,17.10
2014,08,08,09,30,17.20
2014,08,08,09,31,17.20
2014,08,08,09,32,17.20
2014,08,08,09,33,17.20
2014,08,08,09,34,17.30
2014,08,08,09,35,17.40
2014,08,08,09,36,17.40
2014,08,08,09,37,17.50
2014,08,08,09,38,17.50
2014,08,08,09,39,17.50
2014,08,08,09,40,17.60
2014,08,08,09,41,17.60
2014,08,08,09,42,17.60
2014,08,08,09,43,17.60
2014,08,08,09,44,17.70
2014,08,08,09,45,17.70
2014,08,08,09,46,17.70
2014,08,08,09,47,17.70
2014,08,08,09,48,17.70
2014,08,08,09,49,17.70
2014,08,08,09,50,17.70
2014,08,08,09,51,17.80
2014,08,08,09,52,17.80
2014,08,08,09,53,17.80
2014,08,08,09,54,17.70
2014,08,08,09,55,17.70
2014,08,08,09,56,17.80
2014,08,08,09,57,17.80
2014,08,08,09,58,17.80
2014,08,08,09,59,17.80
2014,08,08,10,00,17.80
2014,08,08,10,01,17.80
2014,08,08,10,02,17.80
2014,08,08,10,03,17.80
2014,08,08,10,04,17.80
2014,08,08,10,05,17.70
2014,08,08,10,06,17.70
2014,08,08,10,07,17.70
2014,08,08,10,08,17.80
2014,08,08,10,09,17.80
2014,08,08,10,10,17.80
2014,08,08,10,11,17.70
2014,08,08,10,12,17.70
2014,08,08,10,13,17.70
2014,08,08,10,14,17.60
2014,08,08,10,15,17.60
2014,08,08,10,16,17.60
2014,08,08,10,17,17.70
2014,08,08,10,18,17.70
2014,08,08,10,19,17.80
2014,08,08,10,20,17.80
2014,08,08,10,21,17.70
2014,08,08,10,22,17.70
2014,08,08,10,23,17.70
2014,08,08,10,24,17.70
2014,08,08,10,25,17.70
2014,08,08,10,26,17.70
2014,08,08,10,27,17.60
2014,08,08,10,28,17.60
2014,08,08,10,29,17.60
2014,08,08,10,30,17.60
2014,08,08,10,31,17.70
2014,08,08,10,32,17.70
2014,08,08,10,33,17.70
2014,08,08,10,34,17.70
2014,08,08,10,35,17.70
2014,08,08,10,36,17.70
2014,08,08,10,37,17.80
2014,08,08,10,38,17.80
2014,08,08,10,39,17.70
2014,08,08,10,40,17.80
2014,08,08,10,41,17.80
2014,08,08,10,42,17.80
2014,08,08,10,43,17.80
2014,08,08,10,44,17.80
2014,08,08,10,45,17.80
2014,08,08,10,46,17.80
2014,08,08,10,47,17.90
2014,08,08,10,48,18.00
2014,08,08,10,49,17.90
2014,08,08,10,50,17.90
2014,08,08,10,51,17.90
2014,08,08,10,52,17.80
2014,08,08,10,53,17.80
2014,08,08,10,54,17.70
2014,08,08,10,55,17.70
2014,08,08,10,56,17.70
2014,08,08,10,57,17.80
2014,08,08,10,58,17.80
2014,08,08,10,59,17.80
2014,08,08,11,00,17.80
2014,08,08,11,01,17.90
2014,08,08,11,02,17.90
2014,08,08,11,03,17.90
2014,08,08,11,04,17.90
2014,08,08,11,05,17.80
2014,08,08,11,06,17.70
2014,08,08,11,07,17.70
2014,08,08,11,08,17.60
2014,08,08,11,09,17.60
2014,08,08,11,10,17.60
2014,08,08,11,11,17.60
2014,08,08,11,12,17.70
2014,08,08,11,13,17.80
2014,08,08,11,14,17.90
2014,08,08,11,15,17.90
2014,08,08,11,16,18.00
2014,08,08,11,17,17.90
2014,08,08,11,18,17.90
2014,08,08,11,19,18.00
2014,08,08,11,20,18.00
2014,08,08,11,21,18.10
2014,08,08,11,22,18.10
2014,08,08,11,23,18.10
2014,08,08,11,24,18.10
2014,08,08,11,25,18.10
2014,08,08,11,26,18.10
2014,08,08,11,27,18.10
2014,08,08,11,28,18.10
2014,08,08,11,29,18.10
2014,08,08,11,30,18.10
2014,08,08,11,31,18.20
2014,08,08,11,32,18.20
2014,08,08,11,33,18.30
2014,08,08,11,34,18.40
2014,08,08,11,35,18.40
2014,08,08,11,36,18.50
2014,08,08,11,37,18.50
2014,08,08,11,38,18.50
2014,08,08,11,39,18.50
2014,08,08,11,40,18.50
2014,08,08,11,41,18.60
2014,08,08,11,42,18.50
2014,08,08,11,43,18.50
2014,08,08,11,44,18.40
2014,08,08,11,45,18.40
2014,08,08,11,46,18.50
2014,08,08,11,47,18.50
2014,08,08,11,48,18.60
2014,08,08,11,49,18.50
2014,08,08,11,50,18.50
2014,08,08,11,51,18.40
2014,08,08,11,52,18.30
2014,08,08,11,53,18.30
2014,08,08,11,54,18.50
2014,08,08,11,55,18.60
2014,08,08,11,56,18.70
2014,08,08,11,57,18.60
2014,08,08,11,58,18.60
2014,08,08,11,59,18.60
2014,08,08,12,00,18.70
2014,08,08,12,01,18.70
2014,08,08,12,02,18.70
2014,08,08,12,03,18.60
2014,08,08,12,04,18.50
2014,08,08,12,05,18.40
2014,08,08,12,06,18.50
2014,08,08,12,07,18.50
2014,08,08,12,08,18.50
2014,08,08,12,09,18.50
2014,08,08,12,10,18.40
2014,08,08,12,11,18.30
2014,08,08,12,12,18.30
2014,08,08,12,13,18.40
2014,08,08,12,14,18.40
2014,08,08,12,15,18.30
2014,08,08,12,16,18.30
2014,08,08,12,17,18.30
2014,08,08,12,18,18.40
2014,08,08,12,19,18.40
2014,08,08,12,20,18.40
2014,08,08,12,21,18.30
2014,08,08,12,22,18.30
2014,08,08,12,23,18.30
2014,08,08,12,24,18.30
2014,08,08,12,25,18.30
2014,08,08,12,26,18.30
2014,08,08,12,27,18.30
2014,08,08,12,28,18.30
2014,08,08,12,29,18.40
2014,08,08,12,30,18.40
2014,08,08,12,31,18.30
2014,08,08,12,32,18.30
2014,08,08,12,33,18.30
2014,08,08,12,34,18.30
2014,08,08,12,35,18.20
2014,08,08,12,36,18.20
2014,08,08,12,37,18.20
2014,08,08,12,38,18.20
2014,08,08,12,39,18.30
2014,08,08,12,40,18.30
2014,08,08,12,41,18.30
2014,08,08,12,42,18.40
2014,08,08,12,43,18.40
2014,08,08,12,44,18.40
2014,08,08,12,45,18.40
2014,08,08,12,46,18.30
2014,08,08,12,47,18.30
2014,08,08,12,48,18.40
2014,08,08,12,49,18.50
2014,08,08,12,50,18.50
2014,08,08,12,51,18.60
2014,08,08,12,52,18.60
2014,08,08,12,53,18.70
2014,08,08,12,54,18.70
2014,08,08,12,55,18.80
2014,08,08,12,56,18.80
2014,08,08,12,57,18.80
2014,08,08,12,58,18.90
2014,08,08,12,59,18.90
2014,08,08,13,00,18.90
2014,08,08,13,01,18.90
2014,08,08,13,02,18.90
2014,08,08,13,03,19.00
2014,08,08,13,04,19.10
2014,08,08,13,05,19.20
2014,08,08,13,06,19.30
2014,08,08,13,07,19.30
2014,08,08,13,08,19.40
2014,08,08,13,09,19.40
2014,08,08,13,10,19.40
2014,08,08,13,11,19.40
2014,08,08,13,12,19.40
2014,08,08,13,13,19.40
2014,08,08,13,14,19.40
2014,08,08,13,15,19.40
2014,08,08,13,16,19.50
2014,08,08,13,17,19.50
2014,08,08,13,18,19.40
2014,08,08,13,19,19.40
2014,08,08,13,20,19.40
2014,08,08,13,21,19.40
2014,08,08,13,22,19.40
2014,08,08,13,23,19.40
2014,08,08,13,24,19.40
2014,08,08,13,25,19.50
2014,08,08,13,26,19.50
2014,08,08,13,27,19.50
2014,08,08,13,28,19.50
2014,08,08,13,29,19.60
2014,08,08,13,30,19.60
2014,08,08,13,31,19.70
2014,08,08,13,32,19.70
2014,08,08,13,33,19.70
2014,08,08,13,34,19.80
2014,08,08,13,35,19.80
2014,08,08,13,36,19.80
2014,08,08,13,37,19.80
2014,08,08,13,38,19.90
2014,08,08,13,39,19.90
2014,08,08,13,40,19.90
2014,08,08,13,41,19.90
2014,08,08,13,42,19.90
2014,08,08,13,43,19.90
2014,08,08,13,44,20.00
2014,08,08,13,45,20.10
2014,08,08,13,46,20.20
2014,08,08,13,47,20.30
2014,08,08,13,48,20.30
2014,08,08,13,49,20.30
2014,08,08,13,50,20.40
2014,08,08,13,51,20.40
2014,08,08,13,52,20.50
2014,08,08,13,53,20.50
2014,08,08,13,54,20.60
2014,08,08,13,55,20.60
2014,08,08,13,56,20.60
2014,08,08,13,57,20.70
2014,08,08,13,58,20.70
2014,08,08,13,59,20.70
2014,08,08,14,00,20.70
2014,08,08,14,01,20.70
2014,08,08,14,02,20.70
2014,08,08,14,03,20.70
2014,08,08,14,04,20.70
2014,08,08,14,05,20.70
2014,08,08,14,06,20.80
2014,08,08,14,07,20.80
2014,08,08,14,08,20.80
2014,08,08,14,09,20.80
2014,08,08,14,10,20.70
2014,08,08,14,11,20.70
2014,08,08,14,12,20.80
2014,08,08,14,13,20.70
2014,08,08,14,14,20.70
2014,08,08,14,15,20.60
2014,08,08,14,16,20.60
2014,08,08,14,17,20.60
2014,08,08,14,18,20.50
2014,08,08,14,19,20.50
2014,08,08,14,20,20.40
2014,08,08,14,21,20.30
2014,08,08,14,22,20.30
2014,08,08,14,23,20.30
2014,08,08,14,24,20.30
2014,08,08,14,25,20.30
2014,08,08,14,26,20.30
2014,08,08,14,27,20.40
2014,08,08,14,28,20.50
2014,08,08,14,29,20.60
2014,08,08,14,30,20.70
2014,08,08,14,31,20.70
2014,08,08,14,32,20.80
2014,08,08,14,33,20.80
2014,08,08,14,34,20.80
2014,08,08,14,35,20.80
2014,08,08,14,36,20.90
2014,08,08,14,37,20.90
2014,08,08,14,38,20.90
2014,08,08,14,39,21.00
2014,08,08,14,40,21.00
2014,08,08,14,41,21.10
2014,08,08,14,42,21.10
2014,08,08,14,43,21.20
2014,08,08,14,44,21.20
2014,08,08,14,45,21.20
2014,08,08,14,46,21.20
2014,08,08,14,47,21.20
2014,08,08,14,48,21.20
2014,08,08,14,49,21.30
2014,08,08,14,50,21.30
2014,08,08,14,51,21.30
2014,08,08,14,52,21.30
2014,08,08,14,53,21.20
2014,08,08,14,54,21.30
2014,08,08,14,55,21.30
2014,08,08,14,56,21.30
2014,08,08,14,57,21.40
2014,08,08,14,58,21.30
2014,08,08,14,59,21.30
2014,08,08,15,00,21.20
2014,08,08,15,01,21.10
2014,08,08,15,02,21.10
2014,08,08,15,03,21.10
2014,08,08,15,04,21.00
2014,08,08,15,05,20.90
2014,08,08,15,06,20.90
2014,08,08,15,07,20.90
2014,08,08,15,08,20.90
2014,08,08,15,09,20.80
2014,08,08,15,10,20.80
2014,08,08,15,11,20.80
2014,08,08,15,12,20.90
2014,08,08,15,13,20.90
2014,08,08,15,14,21.00
2014,08,08,15,15,21.00
2014,08,08,15,16,21.00
2014,08,08,15,17,21.00
2014,08,08,15,18,21.00
2014,08,08,15,19,21.00
2014,08,08,15,20,21.00
2014,08,08,15,21,21.00
2014,08,08,15,22,21.00
2014,08,08,15,23,20.90
2014,08,08,15,24,20.90
2014,08,08,15,25,20.90
2014,08,08,15,26,20.90
2014,08,08,15,27,20.90
2014,08,08,15,28,20.90
2014,08,08,15,29,20.90
2014,08,08,15,30,20.90
2014,08,08,15,31,21.00
2014,08,08,15,32,21.10
2014,08,08,15,33,21.00
2014,08,08,15,34,21.00
2014,08,08,15,35,20.90
2014,08,08,15,36,20.90
2014,08,08,15,37,20.90
2014,08,08,15,38,20.90
2014,08,08,15,39,20.90
2014,08,08,15,40,20.90
2014,08,08,15,41,21.00
2014,08,08,15,42,21.10
2014,08,08,15,43,21.20
2014,08,08,15,44,21.20
2014,08,08,15,45,21.20
2014,08,08,15,46,21.20
2014,08,08,15,47,21.20
2014,08,08,15,48,21.20
2014,08,08,15,49,21.30
2014,08,08,15,50,21.30
2014,08,08,15,51,21.30
2014,08,08,15,52,21.30
2014,08,08,15,53,21.30
2014,08,08,15,54,21.20
2014,08,08,15,55,21.30
2014,08,08,15,56,21.30
2014,08,08,15,57,21.30
2014,08,08,15,58,21.40
2014,08,08,15,59,21.40
2014,08,08,16,00,21.40
2014,08,08,16,01,21.40
2014,08,08,16,02,21.40
2014,08,08,16,03,21.40
2014,08,08,16,04,21.40
2014,08,08,16,05,21.50
2014,08,08,16,06,21.60
2014,08,08,16,07,21.60
2014,08,08,16,08,21.60
2014,08,08,16,09,21.60
2014,08,08,16,10,21.60
2014,08,08,16,11,21.50
2014,08,08,16,12,21.50
2014,08,08,16,13,21.40
2014,08,08,16,14,21.40
2014,08,08,16,15,21.40
2014,08,08,16,16,21.40
2014,08,08,16,17,21.40
2014,08,08,16,18,21.40
2014,08,08,16,19,21.30
2014,08,08,16,20,21.30
2014,08,08,16,21,21.20
2014,08,08,16,22,21.20
2014,08,08,16,23,21.20
2014,08,08,16,24,21.20
2014,08,08,16,25,21.20
2014,08,08,16,26,21.20
2014,08,08,16,27,21.20
2014,08,08,16,28,21.20
2014,08,08,16,29,21.20
2014,08,08,16,30,21.30
2014,08,08,16,31,21.30
2014,08,08,16,32,21.30
2014,08,08,16,33,21.40
2014,08,08,16,34,21.40
2014,08,08,16,35,21.40
2014,08,08,16,36,21.50
2014,08,08,16,37,21.50
2014,08,08,16,38,21.50
2014,08,08,16,39,21.60
2014,08,08,16,40,21.70
2014,08,08,16,41,21.70
2014,08,08,16,42,21.70
2014,08,08,16,43,21.70
2014,08,08,16,44,21.70
2014,08,08,16,45,21.70
2014,08,08,16,46,21.70
2014,08,08,16,47,21.70
2014,08,08,16,48,21.80
2014,08,08,16,49,21.80
2014,08,08,16,50,21.90
2014,08,08,16,51,22.00
2014,08,08,16,52,22.00
2014,08,08,16,53,22.00
2014,08,08,16,54,22.10
2014,08,08,16,55,22.10
2014,08,08,16,56,22.00
2014,08,08,16,57,22.00
2014,08,08,16,58,21.90
2014,08,08,16,59,21.90
2014,08,08,17,00,21.90
2014,08,08,17,01,21.80
2014,08,08,17,02,21.80
2014,08,08,17,03,21.80
2014,08,08,17,04,21.80
2014,08,08,17,05,21.80
2014,08,08,17,06,21.80
2014,08,08,17,07,21.80
2014,08,08,17,08,21.70
2014,08,08,17,09,21.70
2014,08,08,17,10,21.60
2014,08,08,17,11,21.60
2014,08,08,17,12,21.60
2014,08,08,17,13,21.70
2014,08,08,17,14,21.70
2014,08,08,17,15,21.70
2014,08,08,17,16,21.60
2014,08,08,17,17,21.60
2014,08,08,17,18,21.60
2014,08,08,17,19,21.70